Temperature
15 15 16 16 13 12 13 14 15 15 15 16 16 16 14 14 15 14 13 13 13 13 13 13 13 13 13 14 14 14 14 14 14 14 14 14 14 14 14 14 14 14 14 14 14 14 14 14 14
15 15 16 15 12 12 13 13 14 15 16 16 16 15 13 12 12 13 12 13 13 13 13 13 13 13 13 13 14 14 14 14 14 14 14 14 14 14 14 13 13 13 14 14 14 14 14 14 14
15 15 15 11 11 12 14 14 14 15 16 16 14 13 12 12 12 12 13 13 13 13 13 13 13 13 13 13 13 13 13 13 13 13 14 13 13 13 13 13 13 13 13 13 14 14 14 14 14
14 15 14 11 12 12 14 14 14 14 16 15 14 11 11 11 12 12 12 12 12 12 12 12 12 12 12 13 13 13 13 13 13 13 13 13 13 13 13 13 13 13 13 13 13 13 13 13 13
14 14 11 11 12 12 13 14 15 14 14 15 13 10 10 11 11 12 12 12 12 12 12 12 12 12 12 12 12 13 13 13 13 13 13 13 13 13 13 13 13 13 13 13 13 13 13 13 13
14 11 10 11 12 13 13 14 14 13 14 14 13 10 10 10 11 11 12 11 11 12 11 11 12 12 12 12 12 12 12 12 12 13 13 13 13 13 13 13 13 13 13 13 13 13 13 13 13
12 9 10 11 12 12 13 14 14 13 13 13 14 10 9 10 10 11 11 11 11 11 11 11 11 11 12 12 12 12 12 12 12 12 12 13 13 13 13 13 13 13 13 13 13 12 12 12 12
13 9 11 11 12 12 13 14 14 13 12 13 13 10 9 10 10 10 10 10 10 10 10 11 11 11 11 11 11 12 12 12 12 12 12 12 12 12 12 12 12 12 12 12 12 12 12 12 12
13 9 10 11 12 12 13 13 13 13 12 12 12 12 12 11 9 9 9 9 10 10 10 10 10 10 11 11 11 11 11 12 12 12 12 12 12 12 12 12 12 12 12 12 12 12 12 12 12
11 8 10 11 12 12 12 12 12 12 11 10 10 10 11 10 9 9 9 9 9 9 9 9 10 10 10 10 10 11 11 11 11 12 12 12 12 12 12 12 12 12 12 12 12 12 12 12 12
10 8 9 11 12 12 12 11 12 11 9 10 10 10 10 9 9 9 9 9 9 9 9 9 9 9 9 10 10 10 10 10 11 11 11 11 11 11 12 12 12 12 12 12 11 11 11 11 11
9 9 10 11 11 11 11 11 10 10 11 11 11 11 10 9 9 9 9 9 9 8 8 8 8 9 9 9 9 9 10 10 10 10 11 11 11 11 11 11 11 11 11 11 11 11 11 11 11
8 9 10 10 11 10 10 9 9 9 10 10 10 10 9 9 8 8 8 8 8 8 8 8 8 8 8 8 9 9 9 9 9 10 10 10 10 11 11 11 11 11 11 11 10 11 10 10 10
8 9 9 9 10 10 9 8 8 8 9 9 9 9 8 8 8 8 8 7 8 8 8 8 8 8 8 8 8 8 8 8 9 9 9 9 10 10 10 10 10 10 10 10 10 10 10 10 10
9 8 8 8 9 9 9 7 6 8 8 8 8 8 8 7 7 7 7 7 7 7 7 7 7 7 7 7 8 8 8 8 8 8 8 9 9 9 9 10 10 10 9 10 9 9 9 9 9
8 7 7 8 8 8 8 7 6 7 7 6 7 6 6 6 6 7 7 7 7 7 7 6 6 6 6 7 7 7 7 7 7 8 8 8 8 8 9 9 9 9 9 9 9 9 9 9 9
6 6 6 7 7 7 6 6 6 6 6 5 5 5 6 6 6 6 6 6 6 6 6 6 6 6 6 6 6 6 6 7 7 7 7 7 7 7 8 8 8 8 8 8 8 8 8 8 8
5 5 6 7 6 6 5 4 4 5 5 4 4 4 4 5 5 5 5 6 6 5 5 5 5 5 5 5 5 5 6 6 6 6 6 6 7 7 7 7 7 7 7 8 8 8 7 8 8
6 6 6 6 6 5 4 4 4 4 4 3 3 3 3 4 4 4 5 5 5 5 5 5 5 5 5 5 5 5 5 5 5 6 6 6 6 6 6 6 7 7 7 7 7 7 7 7 7
6 5 5 5 5 5 4 4 4 3 3 3 3 2 2 3 3 3 3 4 4 4 4 4 4 4 4 4 4 4 4 4 4 5 5 5 5 5 6 6 6 6 6 6 6 6 6 6 6
5 4 4 5 5 4 4 3 3 3 2 2 2 2 2 2 2 2 2 3 3 3 3 3 3 3 3 3 3 3 3 4 4 4 4 4 5 5 5 5 5 5 5 5 6 6 6 6 5
5 5 5 4 4 3 4 3 3 2 1 1 1 1 1 1 1 1 1 2 2 2 2 2 2 2 3 3 3 3 3 3 3 3 3 4 4 4 4 4 4 5 5 5 5 5 5 5 5
4 4 4 4 3 2 2 2 2 1 1 1 0 0 1 0 1 1 1 1 1 1 1 2 2 2 2 2 2 2 2 2 3 3 3 3 3 3 3 4 4 4 4 4 4 4 4 4 4
4 3 3 2 1 2 1 2 2 1 1 1 -0 0 0 -0 -0 0 0 0 0 0 0 1 1 1 1 1 1 1 2 2 2 2 2 2 2 3 3 3 3 3 3 3 4 4 4 4 4
3 2 2 2 1 1 1 1 1 0 -0 -1 -1 -1 -1 -1 -1 -1 -1 -1 -1 -0 -0 -0 -0 0 0 0 1 1 1 1 1 2 2 2 2 2 2 2 2 2 3 3 3 3 3 3 3
2 2 2 2 2 1 1 0 0 -1 -2 -1 -1 -2 -2 -2 -2 -1 -1 -1 -1 -1 -1 -1 -1 -1 -1 -0 -0 -0 0 0 1 1 1 1 1 1 1 1 2 2 2 2 2 2 2 2 2
2 1 1 1 0 0 0 -1 -1 -1 -2 -2 -3 -3 -3 -2 -2 -2 -2 -2 -2 -2 -2 -1 -1 -1 -1 -1 -1 -1 -1 -1 -0 -0 -0 0 0 0 1 1 1 1 1 1 1 1 1 1 2
1 0 -0 0 1 1 0 -1 -0 -1 -2 -3 -4 -4 -3 -3 -3 -3 -3 -3 -2 -2 -2 -2 -2 -2 -2 -2 -2 -2 -2 -2 -1 -1 -1 -1 -0 -0 -0 -0 0 0 0 0 0 1 1 1 1
-0 -0 -1 -1 -1 0 0 0 -1 -2 -3 -4 -4 -4 -4 -4 -4 -4 -3 -3 -3 -3 -3 -3 -3 -3 -3 -3 -2 -2 -2 -2 -2 -2 -1 -1 -1 -1 -1 -1 -1 -1 -0 -0 -0 -0 0 0 0
-1 -1 -2 -1 -1 -2 -1 -1 -3 -4 -4 -4 -4 -4 -4 -4 -4 -4 -4 -4 -4 -4 -4 -4 -4 -3 -3 -3 -3 -3 -3 -3 -2 -2 -2 -2 -2 -2 -2 -2 -2 -2 -1 -1 -1 -1 -1 -1 -0
Wind_Speed
7 5 3 4 5 3 3 5 3 2 1 0 2 5 7 5 3 4 2 2 5 5 5 6 8 9 10 11 12 12 13 13 13 13 13 14 14 14 14 15 15 15 16 16 16 16 16 17 17
3 2 4 4 4 3 5 4 4 4 4 3 4 5 6 4 3 5 2 3 6 6 6 6 8 10 10 11 12 12 12 13 13 13 13 14 14 14 14 14 14 15 15 15 15 15 15 15 15
2 1 4 4 4 6 5 4 6 3 1 2 3 4 4 4 3 3 2 6 7 6 6 6 9 10 11 11 11 11 12 12 12 13 13 14 14 15 14 14 13 14 14 14 15 14 14 15 15
2 4 4 3 5 5 5 4 4 3 1 2 5 5 3 3 2 3 6 8 8 6 6 7 10 10 11 11 11 11 11 12 12 12 13 13 14 14 14 13 13 13 14 14 14 14 14 14 14
4 4 3 2 5 4 4 3 3 2 2 1 5 6 2 4 4 7 8 8 8 6 7 7 10 10 10 11 11 11 12 11 11 12 12 13 14 14 14 13 13 13 13 13 13 13 13 13 14
3 4 4 5 5 3 3 3 2 1 1 1 5 6 3 1 5 7 8 8 7 7 7 7 9 10 10 10 11 11 11 12 11 11 12 12 13 13 13 12 13 12 12 13 13 13 13 12 13
4 4 5 5 4 4 4 2 3 3 2 2 4 7 3 1 4 6 7 8 8 8 7 7 7 8 9 10 10 11 11 11 11 11 11 11 12 12 12 12 12 12 12 12 12 12 12 12 13
4 4 3 3 5 5 3 1 1 3 3 1 4 8 6 5 6 7 8 7 7 7 6 7 7 8 8 8 9 10 11 11 11 11 12 11 11 12 12 11 11 12 12 12 12 12 11 12 12
4 3 5 5 6 4 2 2 0 2 4 4 4 2 4 10 9 9 7 6 6 6 5 6 7 7 7 8 8 9 10 11 11 11 12 11 11 11 10 10 11 11 11 11 11 11 11 11 12
4 4 6 3 3 3 1 1 2 3 3 2 4 5 8 10 10 10 9 8 6 5 4 4 5 7 7 7 8 9 9 9 10 10 10 9 10 10 9 11 11 11 11 10 10 10 10 10 10
4 5 3 2 1 1 1 0 1 5 2 4 6 8 9 9 8 8 8 7 6 6 5 4 5 6 7 6 7 7 7 7 8 9 9 9 9 9 9 9 9 10 10 9 9 9 10 9 9
3 3 3 2 1 1 1 1 0 2 4 3 7 12 11 10 9 8 8 7 6 6 5 4 5 6 6 6 6 6 6 6 6 6 7 8 7 6 7 7 7 7 7 8 8 7 8 9 9
3 2 2 2 1 1 2 1 1 1 1 5 8 10 10 8 6 4 5 6 6 6 5 4 5 6 6 5 5 5 5 5 5 6 6 7 6 5 5 6 6 6 6 6 6 6 6 7 7
3 2 1 2 2 1 1 2 1 3 2 6 8 8 8 8 7 5 5 5 5 6 5 5 5 6 6 5 5 4 4 5 5 5 6 6 6 5 5 5 5 5 5 5 6 5 5 5 5
1 1 2 3 3 3 2 4 4 3 4 5 5 6 6 5 5 6 6 5 5 6 5 5 6 5 5 5 5 5 4 5 5 5 6 6 6 6 5 4 4 3 4 5 6 6 6 5 4
1 1 3 4 3 3 5 7 4 2 5 4 4 5 5 4 5 5 4 4 4 5 5 5 5 5 4 4 5 5 4 4 4 5 5 6 6 6 5 4 3 4 5 5 4 4 3 3 2
1 2 4 4 2 3 5 6 4 2 4 5 4 4 5 3 2 2 3 4 4 5 6 5 4 5 4 4 4 4 4 4 3 4 4 5 5 5 5 4 3 4 5 4 3 3 2 3 2
4 3 3 5 1 2 3 5 5 1 3 4 4 3 4 4 2 2 3 3 4 4 4 4 4 4 4 3 3 3 3 2 2 3 3 4 4 5 4 3 3 4 3 2 2 3 2 2 2
4 4 4 4 1 1 5 7 7 3 2 3 3 3 4 3 2 3 4 4 4 4 4 3 3 2 3 2 2 2 1 1 1 1 2 3 4 4 4 3 3 3 2 2 3 2 3 2 2
2 3 4 3 1 2 3 6 5 2 3 3 4 4 4 2 3 3 3 4 4 3 3 3 2 2 2 1 1 1 1 1 1 1 1 2 3 4 3 3 3 2 2 2 2 3 2 1 2
3 5 4 4 2 1 1 5 4 1 1 2 2 2 3 4 4 3 3 3 3 2 2 2 2 2 2 2 2 2 2 2 1 0 0 0 2 3 3 3 3 2 2 2 2 3 3 3 1
5 4 4 2 1 3 1 4 5 2 1 1 1 1 2 2 3 3 2 2 2 1 1 2 2 2 2 2 2 2 2 2 2 2 1 1 2 2 3 3 3 3 3 2 2 2 2 4 3
3 1 1 2 2 2 1 3 6 1 3 3 3 3 2 2 3 3 2 2 1 1 1 1 2 2 1 1 2 2 1 1 1 1 2 2 2 2 2 3 3 3 3 3 3 2 1 2 3
1 3 4 3 3 3 5 5 6 3 5 3 2 2 1 1 1 1 1 2 2 2 2 1 1 1 1 0 0 1 1 1 1 2 2 2 1 2 3 3 3 3 3 3 4 4 3 3 3
3 4 2 3 1 6 3 4 6 3 1 2 2 1 0 1 1 2 2 2 2 2 2 2 1 1 1 1 1 1 2 2 3 4 4 3 2 2 4 4 4 4 4 4 4 4 4 4 4
3 6 6 5 5 4 1 6 5 1 1 2 2 2 3 2 2 2 1 1 1 2 2 2 2 2 2 1 2 2 2 2 3 4 4 4 4 4 4 5 5 5 5 5 5 4 5 5 5
3 3 4 4 1 2 5 4 4 1 2 3 3 3 3 2 2 2 2 2 2 1 2 2 2 2 3 3 3 2 2 3 3 4 3 3 3 4 5 5 5 5 6 6 5 5 6 6 6
2 4 3 3 3 5 5 5 4 3 2 1 1 1 1 2 2 2 2 2 2 2 2 2 2 2 3 3 3 3 3 3 3 3 4 4 4 4 4 4 5 5 5 6 5 5 5 6 6
1 2 3 3 3 4 4 5 3 4 4 3 3 1 0 1 0 1 1 2 2 2 2 3 3 3 3 4 4 3 3 3 3 3 4 4 4 4 4 5 5 5 5 5 5 6 6 7 7
2 3 4 4 5 4 3 5 1 2 2 2 1 1 1 1 1 1 1 2 3 3 3 3 3 3 4 4 4 4 4 4 3 4 5 5 4 4 5 5 5 6 6 6 7 7 7 8 8
Wind_Direction
315 336 73 64 66 68 225 241 222 191 201 190 96 98 111 110 126 148 134 104 116 129 135 128 119 118 116 111 106 102 99 98 99 97 97 97 97 96 96 95 94 92 90 89 87 86 84 84 82
334 20 68 71 116 182 246 239 218 222 189 140 83 85 88 84 70 107 118 114 118 120 123 127 118 111 112 111 108 106 103 98 99 99 98 99 97 94 93 94 94 91 90 90 89 87 84 82 83
336 67 95 99 155 191 213 219 204 212 178 119 88 56 94 117 117 131 139 123 106 100 107 117 115 113 109 107 108 109 109 107 104 100 99 99 98 96 93 92 94 93 92 92 91 88 84 82 82
65 60 68 110 208 220 205 196 172 154 35 79 120 90 65 22 139 137 121 113 105 92 104 116 113 109 107 106 106 106 109 110 107 103 101 99 99 97 95 94 94 94 94 93 92 89 85 84 83
67 93 108 204 231 239 229 220 169 161 174 138 123 120 92 351 85 112 115 110 108 92 96 111 112 109 106 103 100 102 101 103 105 103 102 102 100 99 98 96 95 94 93 94 93 91 88 85 87
73 89 137 210 229 242 248 221 178 167 181 108 117 124 139 47 104 113 111 108 103 97 91 99 104 101 102 102 98 95 98 98 98 101 103 102 102 101 99 98 97 98 96 96 96 94 91 88 88
124 129 179 196 209 232 241 206 165 172 178 192 139 128 146 176 133 116 108 103 97 95 89 86 92 92 93 96 96 97 95 95 95 93 100 102 102 103 100 98 97 98 98 97 99 97 92 91 88
139 131 182 199 196 224 239 173 168 159 176 58 113 144 179 190 146 113 104 101 99 90 83 82 83 84 83 89 95 96 95 91 88 85 86 94 97 98 97 95 97 98 98 98 98 98 95 92 89
109 115 201 203 190 208 203 165 296 119 109 61 44 110 156 139 130 117 111 102 102 97 86 80 81 81 83 86 91 93 92 88 87 84 82 85 88 88 89 95 97 97 96 96 97 95 92 91 88
113 182 214 215 191 182 155 148 174 114 96 82 57 59 108 128 136 138 140 141 135 128 112 89 89 87 84 82 82 83 84 85 85 84 81 81 89 90 89 94 92 90 88 88 88 86 85 84 81
156 190 204 250 248 161 135 88 145 143 183 192 169 152 141 138 145 151 152 149 147 141 126 108 101 97 91 87 87 81 84 85 85 82 85 86 88 89 87 85 83 84 81 75 77 76 74 79 82
171 229 204 243 263 110 161 155 142 171 210 182 156 150 149 152 161 165 160 152 145 137 133 120 106 102 98 99 95 90 87 84 80 81 89 91 88 87 88 87 83 80 82 77 74 75 75 78 81
214 233 233 236 93 95 104 165 174 243 138 106 120 136 149 154 157 155 147 142 142 143 144 141 121 114 110 106 102 97 92 91 88 85 85 94 96 98 94 90 88 83 84 84 78 76 77 79 80
194 185 230 243 215 221 158 262 194 239 128 116 129 143 152 156 155 142 144 153 159 155 153 148 138 124 118 108 104 106 102 102 99 92 89 93 99 101 102 95 89 88 92 94 92 85 85 83 83
117 95 313 262 214 200 133 287 242 228 146 136 148 154 155 158 151 160 167 166 165 158 149 149 144 127 122 115 112 115 114 109 102 101 97 91 96 97 104 103 96 94 104 101 92 83 81 81 78
72 111 260 266 197 182 162 248 267 201 153 173 175 167 166 168 166 168 160 153 152 147 145 146 142 131 124 118 117 119 121 116 109 109 104 99 98 98 99 103 101 100 102 100 99 93 90 84 83
53 218 235 268 212 161 176 237 269 185 164 184 184 181 177 167 155 160 149 144 144 149 148 148 133 139 138 124 118 120 120 116 117 113 106 105 103 103 99 104 99 108 99 95 110 94 108 110 93
210 217 235 233 235 144 205 247 279 234 182 198 197 187 172 163 181 146 128 127 124 122 124 134 133 137 135 121 108 100 95 101 114 122 118 117 116 112 103 105 99 104 105 99 107 113 88 115 118
182 198 240 253 227 189 228 253 268 245 198 210 193 178 172 176 151 111 108 108 105 100 106 115 121 131 132 139 146 146 168 153 112 122 122 129 129 126 114 110 111 106 119 134 130 129 115 86 88
204 221 253 286 308 201 245 265 266 219 196 200 190 185 177 139 95 96 96 103 109 115 114 116 124 134 132 149 167 162 160 173 165 121 113 138 137 136 131 118 127 123 105 125 132 130 131 123 114
233 216 231 254 331 347 319 295 263 249 114 92 117 156 153 149 148 137 118 116 108 114 131 131 114 125 131 103 96 93 67 46 50 357 302 224 158 149 144 137 131 140 138 169 171 159 148 164 191
243 236 220 217 186 267 183 270 274 251 301 280 216 170 169 159 152 144 134 133 138 150 137 124 123 105 97 107 127 148 175 200 223 217 235 243 195 174 171 166 158 160 161 179 199 179 169 165 181
220 256 206 193 182 281 263 222 276 273 256 255 236 213 201 183 170 168 165 171 157 112 116 120 109 82 73 110 148 173 223 225 221 210 214 230 227 212 203 193 184 185 185 190 192 201 208 183 188
137 55 47 50 83 261 227 198 270 234 229 238 239 222 215 175 146 122 77 80 61 60 66 70 82 48 44 81 177 198 229 237 215 224 223 233 252 238 232 223 211 210 206 207 208 205 212 213 206
86 97 34 355 310 248 223 203 250 247 233 213 222 193 148 124 118 94 68 62 56 49 41 35 49 7 348 326 268 252 248 235 224 222 224 227 239 247 238 231 226 226 225 222 215 217 222 220 220
190 157 169 205 229 269 256 224 251 254 50 51 71 86 72 71 73 78 80 79 48 33 29 25 9 349 339 305 295 280 264 253 257 238 233 230 234 236 229 227 228 232 233 232 222 229 226 221 222
154 193 181 156 197 258 255 273 294 164 47 45 49 56 55 50 57 53 42 40 32 13 357 352 353 345 336 324 314 302 289 277 275 267 243 241 243 243 233 229 233 236 236 233 228 237 235 225 223
152 148 114 152 193 250 270 255 238 234 252 307 355 5 1 25 31 28 24 10 1 344 342 353 351 333 321 319 313 305 298 287 281 276 261 254 252 252 243 239 240 242 241 236 235 242 244 231 229
114 142 151 162 188 196 251 263 234 207 212 215 230 249 286 42 0 341 352 354 354 0 4 356 348 343 337 327 317 317 315 305 295 284 277 267 262 254 250 248 248 249 248 242 239 239 240 234 233
167 181 154 182 231 207 220 266 280 193 201 195 236 285 283 341 347 348 356 3 6 5 355 344 339 335 328 323 318 309 312 314 300 289 284 280 266 258 254 252 252 253 253 248 241 240 239 236 234
Height
1509 1510 1513 1515 1519 1527 1528 1521 1514 1513 1513 1512 1511 1511 1513 1517 1521 1528 1525 1524 1526 1527 1530 1532 1533 1535 1537 1538 1538 1539 1540 1541 1541 1542 1542 1543 1544 1544 1545 1545 1546 1546 1547 1547 1548 1548 1549 1549 1550
1508 1510 1514 1514 1522 1531 1527 1517 1514 1511 1510 1511 1512 1513 1514 1517 1519 1521 1522 1524 1526 1528 1530 1531 1533 1535 1536 1537 1538 1539 1540 1541 1541 1542 1543 1543 1544 1545 1545 1546 1547 1547 1548 1548 1549 1549 1550 1550 1551
1508 1510 1512 1515 1522 1524 1519 1512 1510 1509 1509 1510 1512 1514 1516 1518 1519 1520 1522 1523 1526 1527 1529 1531 1533 1535 1536 1537 1538 1539 1540 1541 1542 1542 1543 1544 1544 1545 1545 1546 1547 1548 1548 1549 1549 1550 1550 1551 1551
1508 1510 1512 1518 1519 1515 1511 1509 1508 1509 1509 1510 1511 1515 1517 1520 1520 1521 1522 1523 1525 1527 1529 1531 1533 1534 1536 1537 1538 1539 1540 1541 1541 1542 1543 1544 1544 1545 1546 1546 1547 1548 1549 1550 1550 1551 1551 1552 1552
1507 1508 1515 1520 1516 1511 1508 1507 1507 1508 1509 1510 1511 1514 1517 1519 1520 1521 1522 1523 1525 1527 1529 1531 1532 1534 1535 1536 1537 1538 1539 1540 1541 1542 1543 1543 1544 1545 1546 1547 1547 1548 1549 1550 1550 1551 1552 1552 1553
1506 1508 1518 1520 1514 1510 1507 1507 1507 1508 1508 1510 1511 1514 1517 1519 1519 1520 1522 1523 1525 1527 1528 1530 1532 1533 1535 1536 1537 1538 1539 1540 1541 1542 1542 1543 1544 1545 1546 1547 1547 1548 1549 1550 1551 1551 1552 1553 1553
1506 1510 1514 1513 1512 1510 1507 1506 1507 1508 1508 1510 1510 1513 1516 1518 1519 1520 1522 1523 1525 1527 1528 1530 1532 1533 1534 1535 1536 1537 1538 1539 1540 1541 1542 1543 1544 1545 1546 1546 1547 1548 1549 1550 1551 1551 1552 1553 1553
1503 1508 1510 1510 1509 1508 1505 1505 1506 1507 1508 1510 1510 1511 1514 1516 1518 1519 1521 1523 1524 1526 1528 1529 1531 1532 1533 1534 1535 1536 1537 1538 1539 1540 1542 1543 1543 1544 1545 1546 1547 1548 1549 1549 1550 1551 1552 1553 1553
1503 1510 1511 1508 1506 1505 1504 1504 1505 1506 1507 1508 1509 1510 1511 1514 1516 1518 1520 1522 1523 1525 1527 1528 1530 1531 1532 1534 1534 1535 1536 1537 1538 1540 1541 1542 1543 1544 1544 1546 1547 1547 1548 1549 1550 1551 1552 1552 1553
1502 1509 1506 1503 1502 1502 1503 1504 1505 1506 1507 1508 1509 1509 1511 1512 1514 1515 1517 1519 1521 1523 1525 1527 1528 1530 1531 1532 1533 1534 1535 1536 1537 1539 1540 1541 1542 1543 1544 1545 1546 1546 1547 1548 1549 1550 1551 1552 1553
1500 1504 1503 1502 1501 1501 1502 1504 1504 1505 1507 1507 1507 1508 1509 1511 1513 1514 1515 1517 1519 1522 1524 1525 1527 1528 1530 1531 1532 1533 1534 1535 1536 1537 1539 1540 1541 1542 1543 1544 1545 1546 1546 1547 1548 1549 1550 1551 1553
1500 1500 1500 1501 1501 1501 1502 1503 1504 1504 1505 1506 1506 1507 1508 1510 1511 1513 1514 1516 1518 1520 1522 1524 1526 1527 1529 1529 1530 1531 1532 1534 1535 1536 1538 1539 1539 1540 1541 1542 1543 1544 1545 1546 1547 1548 1549 1550 1552
1499 1500 1500 1500 1500 1501 1502 1503 1503 1504 1504 1505 1505 1506 1507 1509 1511 1513 1514 1516 1517 1519 1520 1522 1524 1526 1527 1528 1529 1530 1531 1532 1533 1535 1536 1537 1538 1539 1540 1541 1542 1543 1544 1545 1546 1547 1548 1549 1550
1498 1499 1499 1500 1500 1501 1501 1502 1503 1502 1503 1503 1504 1505 1506 1508 1509 1511 1512 1514 1515 1517 1519 1520 1522 1524 1525 1526 1527 1528 1529 1531 1532 1533 1534 1535 1536 1537 1538 1540 1540 1542 1543 1544 1545 1546 1547 1548 1549
1498 1499 1500 1499 1499 1500 1501 1503 1502 1501 1502 1502 1503 1504 1505 1506 1508 1509 1510 1512 1514 1515 1517 1519 1520 1522 1523 1524 1526 1527 1528 1529 1530 1532 1533 1533 1534 1536 1537 1538 1539 1540 1541 1542 1543 1544 1545 1547 1547
1499 1502 1503 1499 1498 1498 1503 1504 1500 1499 1499 1500 1501 1502 1503 1505 1506 1508 1509 1511 1512 1514 1515 1517 1519 1520 1521 1522 1523 1525 1526 1527 1528 1530 1531 1531 1532 1533 1534 1535 1536 1538 1539 1540 1541 1542 1544 1545 1546
1503 1506 1503 1500 1497 1498 1501 1502 1499 1498 1498 1498 1499 1500 1501 1503 1505 1506 1507 1509 1510 1512 1513 1515 1516 1518 1519 1520 1521 1523 1524 1525 1526 1528 1529 1529 1530 1531 1532 1533 1534 1535 1536 1538 1539 1540 1541 1543 1544
1505 1506 1503 1500 1498 1499 1502 1501 1498 1497 1497 1497 1498 1498 1499 1500 1502 1504 1505 1507 1508 1510 1511 1513 1514 1516 1517 1518 1519 1520 1521 1522 1524 1525 1526 1527 1528 1528 1530 1531 1531 1532 1534 1535 1536 1537 1539 1540 1542
1499 1501 1501 1499 1498 1501 1501 1499 1497 1496 1496 1496 1496 1497 1498 1499 1501 1502 1503 1505 1506 1507 1509 1510 1511 1513 1514 1515 1516 1517 1518 1520 1521 1522 1523 1524 1525 1526 1527 1528 1529 1530 1531 1532 1534 1534 1536 1537 1539
1499 1501 1502 1500 1499 1500 1501 1499 1495 1494 1495 1494 1494 1495 1496 1497 1498 1500 1501 1502 1503 1504 1506 1507 1509 1510 1511 1513 1514 1515 1516 1517 1518 1519 1520 1521 1522 1524 1524 1525 1526 1527 1528 1529 1530 1532 1532 1534 1535
1499 1502 1501 1502 1500 1500 1502 1499 1495 1493 1493 1493 1493 1493 1494 1495 1496 1497 1498 1499 1500 1502 1503 1504 1506 1507 1509 1510 1512 1513 1513 1514 1515 1516 1517 1518 1519 1520 1521 1522 1523 1524 1525 1526 1527 1529 1529 1530 1532
1499 1498 1499 1500 1504 1507 1504 1506 1495 1493 1493 1493 1492 1492 1492 1493 1494 1495 1496 1497 1498 1499 1501 1502 1504 1505 1506 1507 1508 1509 1510 1510 1511 1513 1514 1515 1516 1517 1518 1519 1519 1520 1521 1522 1523 1525 1526 1527 1528
1497 1496 1498 1500 1505 1509 1508 1509 1497 1494 1493 1492 1491 1491 1491 1492 1493 1493 1494 1495 1496 1498 1499 1500 1501 1502 1503 1504 1505 1506 1507 1508 1509 1510 1511 1512 1513 1514 1515 1515 1516 1517 1518 1518 1520 1521 1522 1524 1525
1496 1498 1501 1505 1509 1511 1506 1508 1497 1495 1491 1489 1489 1489 1490 1491 1492 1492 1493 1494 1495 1496 1496 1497 1498 1499 1500 1501 1502 1503 1504 1504 1505 1506 1507 1507 1508 1509 1511 1511 1512 1513 1514 1514 1515 1516 1518 1519 1521
1498 1504 1512 1513 1516 1509 1504 1504 1497 1492 1490 1489 1488 1488 1489 1489 1490 1491 1491 1492 1492 1493 1494 1494 1495 1496 1497 1497 1498 1499 1500 1501 1502 1502 1503 1503 1504 1505 1506 1507 1508 1509 1509 1510 1511 1512 1513 1514 1516
1499 1501 1509 1512 1511 1507 1505 1503 1496 1491 1490 1489 1489 1489 1488 1489 1489 1489 1490 1490 1491 1491 1491 1492 1492 1493 1493 1494 1494 1495 1496 1497 1498 1498 1499 1499 1500 1501 1502 1502 1503 1504 1505 1505 1506 1507 1508 1509 1510
1499 1502 1502 1509 1512 1513 1505 1502 1496 1491 1491 1490 1490 1489 1488 1489 1489 1489 1489 1489 1489 1489 1489 1489 1490 1490 1490 1491 1491 1491 1492 1493 1493 1494 1494 1495 1495 1496 1497 1498 1498 1499 1500 1500 1501 1502 1503 1504 1505
1498 1501 1507 1509 1509 1508 1504 1502 1494 1492 1491 1491 1491 1489 1489 1489 1489 1488 1488 1488 1488 1488 1488 1488 1488 1487 1487 1487 1487 1488 1488 1488 1489 1489 1490 1490 1491 1491 1491 1492 1493 1493 1494 1495 1495 1496 1497 1497 1498
1501 1503 1504 1508 1508 1507 1505 1498 1490 1489 1489 1490 1489 1489 1489 1488 1488 1487 1487 1487 1486 1486 1486 1485 1485 1484 1484 1484 1484 1484 1484 1484 1484 1484 1485 1485 1485 1486 1486 1486 1487 1487 1488 1488 1489 1490 1490 1491 1492
1502 1503 1506 1507 1507 1509 1506 1500 1490 1489 1488 1488 1488 1488 1488 1488 1487 1486 1486 1485 1484 1483 1483 1482 1482 1481 1481 1481 1480 1480 1480 1480 1480 1480 1480 1480 1480 1480 1480 1480 1481 1481 1481 1482 1482 1483 1484 1484 1485